| time (UTC) | temp C | wind direction | speed KPH | gust KPH | rain 1hr cm | rain 24hr cm | rain mn cm | humidity % | barometer mb |
| 20260508060518 | 7 | 315 | 6.4 | 14.5 | 0.00 | 0.00 | 0.00 | 57 | 1006.1 |
| 20260508060022 | 7 | 315 | 4.8 | 14.5 | 0.00 | 0.00 | 0.00 | 59 | 1006.2 |
| 20260508055523 | 7 | 315 | 1.6 | 9.7 | 0.00 | 0.00 | 0.00 | 60 | 1006.2 |
| 20260508055019 | 7 | 315 | 6.4 | 16.1 | 0.00 | 0.00 | 0.00 | 60 | 1006.3 |
| 20260508054517 | 6 | 315 | 4.8 | 14.5 | 0.00 | 0.03 | 0.00 | 63 | 1006.3 |
| 20260508054024 | 6 | 315 | 3.2 | 12.9 | 0.00 | 0.03 | 0.00 | 64 | 1006.3 |
| 20260508053519 | 6 | 315 | 3.2 | 9.7 | 0.00 | 0.03 | 0.00 | 64 | 1006.4 |
| 20260508053037 | 6 | 0.0 | 3.2 | 0.00 | 0.03 | 0.00 | 66 | 1006.6 | |
| 20260508052537 | 6 | 0.0 | 3.2 | 0.00 | 0.03 | 0.00 | 68 | 1006.6 | |
| 20260508052017 | 6 | 0.0 | 4.8 | 0.00 | 0.03 | 0.00 | 64 | 1006.7 | |
| 20260508051519 | 6 | 0.0 | 4.8 | 0.00 | 0.03 | 0.00 | 66 | 1006.7 | |
| 20260508051019 | 6 | 0.0 | 0.0 | 0.00 | 0.03 | 0.00 | 66 | 1006.8 | |
| 20260508050523 | 6 | 0.0 | 1.6 | 0.00 | 0.03 | 0.00 | 67 | 1006.8 | |
| 20260508050018 | 6 | 0.0 | 9.7 | 0.00 | 0.03 | 0.00 | 65 | 1007.0 | |
| 20260508045518 | 6 | 270 | 3.2 | 9.7 | 0.00 | 0.03 | 0.00 | 65 | 1006.8 |
| 20260508045019 | 6 | 315 | 1.6 | 6.4 | 0.00 | 0.03 | 0.00 | 64 | 1006.8 |
| 20260508044522 | 5 | 315 | 1.6 | 6.4 | 0.00 | 0.05 | 0.00 | 66 | 1006.8 |
| 20260508044017 | 5 | 0.0 | 0.0 | 0.00 | 0.10 | 0.00 | 69 | 1007.0 | |
| 20260508043517 | 6 | 0.0 | 1.6 | 0.00 | 0.13 | 0.00 | 69 | 1007.0 | |
| 20260508043037 | 6 | 0.0 | 3.2 | 0.00 | 0.18 | 0.00 | 70 | 1007.0 | |
| 20260508042517 | 6 | 0.0 | 4.8 | 0.00 | 0.23 | 0.00 | 70 | 1006.9 | |
| 20260508042017 | 6 | 0.0 | 1.6 | 0.00 | 0.28 | 0.00 | 68 | 1007.0 | |
| 20260508041537 | 6 | 270 | 1.6 | 6.4 | 0.00 | 0.33 | 0.00 | 68 | 1007.0 |
| 20260508041037 | 6 | 0.0 | 3.2 | 0.00 | 0.36 | 0.00 | 67 | 1007.0 | |
| 20260508040517 | 6 | 0.0 | 6.4 | 0.00 | 0.38 | 0.00 | 65 | 1006.9 | |
| 20260508040018 | 6 | 0.0 | 0.0 | 0.00 | 0.41 | 0.41 | 65 | 1007.2 | |
| 20260508035523 | 7 | 0.0 | 0.0 | 0.00 | 0.41 | 0.41 | 66 | 1007.1 | |
| 20260508035018 | 7 | 0.0 | 0.0 | 0.00 | 0.41 | 0.41 | 68 | 1007.6 | |
| 20260508034523 | 7 | 0.0 | 3.2 | 0.00 | 0.41 | 0.41 | 66 | 1007.1 | |
| 20260508034018 | 7 | 0.0 | 0.0 | 0.00 | 0.41 | 0.41 | 63 | 1007.0 | |
| 20260508033523 | 7 | 0.0 | 0.0 | 0.00 | 0.41 | 0.41 | 62 | 1007.0 | |
| 20260508033023 | 7 | 0.0 | 0.0 | 0.00 | 0.41 | 0.41 | 61 | 1006.9 | |
| 20260508032602 | 7 | 0.0 | 0.0 | 0.00 | 0.41 | 0.41 | 61 | 1007.0 | |
| 20260508032043 | 8 | 0.0 | 0.0 | 0.00 | 0.41 | 0.41 | 58 | 1006.9 | |
| 20260508031538 | 8 | 0.0 | 0.0 | 0.00 | 0.41 | 0.41 | 59 | 1007.0 | |
| 20260508031023 | 8 | 0.0 | 0.0 | 0.00 | 0.43 | 0.41 | 55 | 1007.1 | |
| 20260508030522 | 8 | 0.0 | 0.0 | 0.00 | 0.43 | 0.41 | 54 | 1007.0 | |
| 20260508030023 | 9 | 0.0 | 0.0 | 0.00 | 0.43 | 0.41 | 53 | 1007.0 | |
| 20260508025522 | 9 | 0.0 | 3.2 | 0.00 | 0.43 | 0.41 | 52 | 1007.0 | |
| 20260508025020 | 9 | 0.0 | 3.2 | 0.00 | 0.43 | 0.41 | 51 | 1007.1 | |
| 20260508024523 | 10 | 0.0 | 4.8 | 0.00 | 0.43 | 0.41 | 49 | 1007.0 | |
| 20260508024103 | 10 | 0.0 | 4.8 | 0.00 | 0.43 | 0.41 | 48 | 1006.9 | |
| 20260508023519 | 10 | 0.0 | 3.2 | 0.00 | 0.43 | 0.41 | 48 | 1006.9 | |
| 20260508023018 | 10 | 0.0 | 3.2 | 0.00 | 0.43 | 0.41 | 48 | 1006.8 | |
| 20260508022537 | 10 | 0.0 | 6.4 | 0.00 | 0.43 | 0.41 | 49 | 1006.8 | |
| 20260508022022 | 10 | 315 | 1.6 | 6.4 | 0.00 | 0.43 | 0.41 | 47 | 1006.7 |
| 20260508021517 | 10 | 315 | 4.8 | 16.1 | 0.00 | 0.43 | 0.41 | 46 | 1006.7 |
| 20260508021018 | 10 | 315 | 3.2 | 12.9 | 0.00 | 0.43 | 0.41 | 48 | 1006.7 |
| 20260508020520 | 10 | 315 | 3.2 | 12.9 | 0.00 | 0.43 | 0.41 | 48 | 1006.7 |
| 20260508020022 | 10 | 0.0 | 6.4 | 0.00 | 0.43 | 0.41 | 49 | 1006.4 | |
| 20260508015542 | 10 | 315 | 1.6 | 11.3 | 0.00 | 0.43 | 0.41 | 52 | 1006.6 |
| 20260508015018 | 10 | 338 | 1.6 | 8.0 | 0.00 | 0.46 | 0.41 | 53 | 1006.6 |
| 20260508014517 | 10 | 0.0 | 1.6 | 0.00 | 0.46 | 0.41 | 53 | 1006.6 | |
| 20260508014102 | 11 | 315 | 1.6 | 8.0 | 0.00 | 0.46 | 0.41 | 48 | 1006.5 |
| 20260508013537 | 11 | 0.0 | 6.4 | 0.00 | 0.46 | 0.41 | 49 | 1006.4 | |
| 20260508013019 | 11 | 0.0 | 8.0 | 0.00 | 0.46 | 0.41 | 48 | 1006.2 | |
| 20260508012518 | 11 | 0.0 | 3.2 | 0.00 | 0.48 | 0.41 | 46 | 1006.2 | |
| 20260508012020 | 11 | 0.0 | 4.8 | 0.00 | 0.48 | 0.41 | 44 | 1006.2 | |
| 20260508011542 | 11 | 315 | 1.6 | 6.4 | 0.00 | 0.48 | 0.41 | 45 | 1006.1 |
| 20260508011020 | 12 | 293 | 1.6 | 6.4 | 0.00 | 0.48 | 0.41 | 45 | 1005.8 |
| 20260508010518 | 12 | 315 | 1.6 | 12.9 | 0.00 | 0.48 | 0.41 | 45 | 1005.8 |
| 20260508010023 | 12 | 315 | 4.8 | 14.5 | 0.00 | 0.48 | 0.41 | 44 | 1005.7 |
| 20260508005518 | 12 | 315 | 3.2 | 9.7 | 0.00 | 0.48 | 0.41 | 43 | 1005.7 |
| 20260508005023 | 12 | 315 | 4.8 | 14.5 | 0.00 | 0.51 | 0.41 | 42 | 1005.5 |
| 20260508004522 | 12 | 338 | 4.8 | 9.7 | 0.00 | 0.51 | 0.41 | 42 | 1005.4 |
| 20260508004022 | 12 | 315 | 6.4 | 12.9 | 0.00 | 0.51 | 0.41 | 42 | 1005.3 |
| 20260508003537 | 12 | 315 | 4.8 | 12.9 | 0.00 | 0.53 | 0.41 | 41 | 1005.1 |
| 20260508003017 | 13 | 315 | 4.8 | 14.5 | 0.00 | 0.53 | 0.41 | 41 | 1005.2 |
| 20260508002522 | 13 | 338 | 4.8 | 14.5 | 0.00 | 0.53 | 0.41 | 41 | 1005.1 |
| 20260508002018 | 13 | 315 | 3.2 | 11.3 | 0.00 | 0.53 | 0.41 | 42 | 1005.0 |
| 20260508001517 | 13 | 0.0 | 4.8 | 0.00 | 0.53 | 0.41 | 41 | 1004.9 | |
| 20260508001019 | 13 | 315 | 3.2 | 12.9 | 0.00 | 0.53 | 0.41 | 40 | 1004.9 |
| 20260508000519 | 13 | 315 | 4.8 | 16.1 | 0.00 | 0.53 | 0.41 | 40 | 1004.9 |
| 20260508000018 | 13 | 315 | 3.2 | 8.0 | 0.00 | 0.53 | 0.41 | 40 | 1004.9 |
| 20260507235520 | 14 | 315 | 3.2 | 8.0 | 0.00 | 0.53 | 0.41 | 39 | 1004.6 |
| 20260507235040 | 14 | 315 | 3.2 | 8.0 | 0.00 | 0.53 | 0.41 | 39 | 1004.7 |
| 20260507234519 | 14 | 315 | 3.2 | 9.7 | 0.00 | 0.53 | 0.41 | 39 | 1004.8 |
| 20260507234038 | 14 | 315 | 4.8 | 9.7 | 0.00 | 0.53 | 0.41 | 38 | 1004.8 |
| 20260507233519 | 15 | 315 | 4.8 | 9.7 | 0.00 | 0.53 | 0.41 | 38 | 1004.6 |
| 20260507233021 | 15 | 315 | 4.8 | 12.9 | 0.00 | 0.53 | 0.41 | 37 | 1004.6 |
| 20260507232518 | 15 | 315 | 6.4 | 12.9 | 0.00 | 0.53 | 0.41 | 37 | 1004.6 |
| 20260507232018 | 15 | 315 | 3.2 | 8.0 | 0.00 | 0.53 | 0.41 | 38 | 1004.4 |
| 20260507231519 | 15 | 315 | 3.2 | 12.9 | 0.00 | 0.53 | 0.41 | 37 | 1004.2 |
| 20260507231038 | 15 | 315 | 3.2 | 12.9 | 0.00 | 0.53 | 0.41 | 36 | 1004.3 |
| 20260507230542 | 15 | 315 | 6.4 | 16.1 | 0.00 | 0.53 | 0.41 | 36 | 1004.2 |
| 20260507230018 | 15 | 315 | 8.0 | 16.1 | 0.00 | 0.53 | 0.41 | 36 | 1004.0 |
| 20260507225518 | 16 | 315 | 11.3 | 24.1 | 0.00 | 0.53 | 0.41 | 34 | 1004.0 |
| 20260507225017 | 16 | 315 | 6.4 | 16.1 | 0.00 | 0.53 | 0.41 | 36 | 1004.0 |
| 20260507224517 | 16 | 315 | 6.4 | 19.3 | 0.00 | 0.53 | 0.41 | 34 | 1003.8 |
| 20260507224017 | 16 | 270 | 6.4 | 25.7 | 0.00 | 0.53 | 0.41 | 34 | 1003.8 |
| 20260507223518 | 16 | 293 | 4.8 | 16.1 | 0.00 | 0.53 | 0.41 | 34 | 1003.7 |
| 20260507223017 | 16 | 315 | 8.0 | 17.7 | 0.00 | 0.53 | 0.41 | 33 | 1003.7 |
| 20260507222522 | 16 | 315 | 4.8 | 14.5 | 0.00 | 0.53 | 0.41 | 32 | 1003.7 |
| 20260507222020 | 16 | 293 | 6.4 | 20.9 | 0.00 | 0.56 | 0.41 | 33 | 1003.5 |
| 20260507221517 | 16 | 315 | 11.3 | 20.9 | 0.00 | 0.56 | 0.41 | 35 | 1003.5 |
| 20260507221018 | 17 | 270 | 8.0 | 19.3 | 0.00 | 0.56 | 0.41 | 34 | 1003.6 |
| 20260507220519 | 17 | 270 | 11.3 | 19.3 | 0.00 | 0.58 | 0.41 | 35 | 1003.5 |
| 20260507220024 | 17 | 293 | 9.7 | 22.5 | 0.00 | 0.58 | 0.41 | 33 | 1003.3 |
| 20260507215523 | 17 | 270 | 12.9 | 25.7 | 0.00 | 0.58 | 0.41 | 33 | 1003.4 |
| 20260507215019 | 17 | 270 | 8.0 | 30.6 | 0.00 | 0.61 | 0.41 | 34 | 1003.6 |
| 20260507214517 | 17 | 270 | 11.3 | 29.0 | 0.00 | 0.61 | 0.41 | 33 | 1003.5 |
| 20260507214038 | 17 | 270 | 11.3 | 22.5 | 0.00 | 0.64 | 0.41 | 33 | 1003.5 |
| 20260507213538 | 17 | 315 | 9.7 | 22.5 | 0.00 | 0.64 | 0.41 | 32 | 1003.4 |
| 20260507213031 | 17 | 315 | 4.8 | 11.3 | 0.00 | 0.66 | 0.41 | 35 | 1003.6 |
| 20260507212539 | 17 | 270 | 9.7 | 22.5 | 0.00 | 0.66 | 0.41 | 34 | 1003.6 |
| 20260507212020 | 17 | 338 | 8.0 | 20.9 | 0.00 | 0.69 | 0.41 | 33 | 1003.5 |
| 20260507211520 | 17 | 270 | 9.7 | 22.5 | 0.00 | 0.71 | 0.41 | 36 | 1003.5 |
| 20260507211018 | 17 | 270 | 6.4 | 14.5 | 0.00 | 0.74 | 0.41 | 36 | 1003.4 |
| 20260507210520 | 17 | 270 | 14.5 | 27.4 | 0.00 | 0.76 | 0.41 | 35 | 1003.5 |
| 20260507210018 | 17 | 293 | 9.7 | 27.4 | 0.00 | 0.76 | 0.41 | 33 | 1003.3 |
| 20260507205520 | 18 | 270 | 9.7 | 25.7 | 0.00 | 0.79 | 0.41 | 34 | 1003.4 |
| 20260507205020 | 17 | 270 | 14.5 | 29.0 | 0.00 | 0.79 | 0.41 | 35 | 1003.2 |
| 20260507204523 | 17 | 270 | 20.9 | 32.2 | 0.00 | 0.81 | 0.41 | 37 | 1003.0 |
| 20260507204019 | 18 | 270 | 12.9 | 27.4 | 0.00 | 0.81 | 0.41 | 33 | 1003.2 |
| 20260507203522 | 18 | 270 | 14.5 | 25.7 | 0.00 | 0.81 | 0.41 | 34 | 1002.9 |
| 20260507203042 | 18 | 270 | 11.3 | 24.1 | 0.00 | 0.81 | 0.41 | 35 | 1003.1 |
| 20260507202518 | 18 | 270 | 16.1 | 35.4 | 0.00 | 0.84 | 0.41 | 30 | 1002.9 |
| 20260507202017 | 18 | 270 | 16.1 | 25.7 | 0.00 | 0.86 | 0.41 | 37 | 1003.0 |
| 20260507201519 | 18 | 270 | 14.5 | 30.6 | 0.00 | 0.86 | 0.41 | 34 | 1003.1 |
| 20260507201039 | 18 | 270 | 17.7 | 40.2 | 0.00 | 0.86 | 0.41 | 29 | 1003.0 |
| 20260507200523 | 18 | 270 | 11.3 | 24.1 | 0.00 | 0.89 | 0.41 | 34 | 1003.1 |
| 20260507200017 | 18 | 270 | 9.7 | 19.3 | 0.00 | 0.91 | 0.41 | 34 | 1003.0 |
| 20260507195537 | 17 | 270 | 16.1 | 30.6 | 0.00 | 0.91 | 0.41 | 34 | 1003.1 |
| 20260507195038 | 18 | 270 | 16.1 | 27.4 | 0.00 | 0.97 | 0.41 | 36 | 1003.1 |
| 20260507194517 | 18 | 270 | 14.5 | 29.0 | 0.00 | 0.99 | 0.41 | 34 | 1003.1 |
| 20260507194017 | 18 | 270 | 12.9 | 32.2 | 0.00 | 1.02 | 0.41 | 41 | 1003.2 |
| 20260507193520 | 18 | 270 | 11.3 | 24.1 | 0.00 | 1.04 | 0.41 | 42 | 1003.3 |
| 20260507193021 | 18 | 270 | 6.4 | 17.7 | 0.00 | 1.07 | 0.41 | 48 | 1003.4 |
| 20260507192519 | 18 | 270 | 11.3 | 25.7 | 0.00 | 1.09 | 0.41 | 46 | 1003.4 |
| 20260507192044 | 18 | 270 | 19.3 | 37.0 | 0.00 | 1.12 | 0.41 | 46 | 1003.4 |
| 20260507191517 | 17 | 270 | 16.1 | 29.0 | 0.00 | 1.17 | 0.41 | 44 | 1003.4 |
| 20260507191018 | 17 | 270 | 17.7 | 33.8 | 0.00 | 1.17 | 0.41 | 46 | 1003.4 |
| 20260507190520 | 17 | 248 | 16.1 | 33.8 | 0.00 | 1.17 | 0.41 | 53 | 1003.4 |
| 20260507190023 | 17 | 248 | 16.1 | 32.2 | 0.00 | 1.17 | 0.41 | 50 | 1003.4 |
| 20260507185521 | 17 | 248 | 16.1 | 29.0 | 0.00 | 1.17 | 0.41 | 52 | 1003.4 |
| 20260507185021 | 17 | 225 | 12.9 | 22.5 | 0.00 | 1.17 | 0.41 | 54 | 1003.4 |
| 20260507184518 | 17 | 225 | 9.7 | 20.9 | 0.00 | 1.17 | 0.41 | 56 | 1003.4 |
| 20260507184020 | 17 | 225 | 8.0 | 16.1 | 0.00 | 1.17 | 0.41 | 57 | 1003.5 |
| 20260507183518 | 17 | 203 | 6.4 | 11.3 | 0.00 | 1.17 | 0.41 | 61 | 1003.5 |
| 20260507183019 | 18 | 225 | 6.4 | 14.5 | 0.00 | 1.17 | 0.41 | 60 | 1003.6 |
| 20260507182522 | 17 | 203 | 6.4 | 14.5 | 0.00 | 1.17 | 0.41 | 62 | 1003.5 |
| 20260507182017 | 17 | 180 | 6.4 | 12.9 | 0.00 | 1.17 | 0.41 | 62 | 1003.5 |
| 20260507181522 | 16 | 225 | 6.4 | 12.9 | 0.00 | 1.17 | 0.41 | 66 | 1003.6 |
| 20260507181021 | 16 | 203 | 6.4 | 17.7 | 0.00 | 1.17 | 0.41 | 68 | 1003.8 |
| 20260507180539 | 16 | 203 | 9.7 | 19.3 | 0.00 | 1.17 | 0.41 | 64 | 1003.8 |
| 20260507180019 | 15 | 225 | 8.0 | 19.3 | 0.00 | 1.17 | 0.41 | 66 | 1003.9 |
| 20260507175520 | 15 | 225 | 9.7 | 17.7 | 0.00 | 1.17 | 0.41 | 67 | 1003.8 |
| 20260507175019 | 15 | 203 | 9.7 | 22.5 | 0.00 | 1.17 | 0.41 | 66 | 1004.0 |
| 20260507174516 | 15 | 225 | 11.3 | 25.7 | 0.00 | 1.17 | 0.41 | 66 | 1004.0 |
| 20260507174021 | 14 | 225 | 11.3 | 25.7 | 0.00 | 1.17 | 0.41 | 69 | 1004.2 |
| 20260507173519 | 13 | 203 | 9.7 | 19.3 | 0.00 | 1.17 | 0.41 | 70 | 1004.1 |
| 20260507173017 | 13 | 203 | 9.7 | 19.3 | 0.00 | 1.17 | 0.41 | 70 | 1004.2 |
| 20260507172521 | 13 | 225 | 9.7 | 22.5 | 0.00 | 1.17 | 0.41 | 69 | 1004.1 |
| 20260507172021 | 14 | 225 | 14.5 | 27.4 | 0.00 | 1.17 | 0.41 | 68 | 1004.2 |
| 20260507171520 | 14 | 248 | 12.9 | 22.5 | 0.00 | 1.17 | 0.41 | 71 | 1004.4 |
| 20260507171019 | 13 | 225 | 9.7 | 24.1 | 0.00 | 1.17 | 0.41 | 72 | 1004.4 |
| 20260507170516 | 13 | 225 | 9.7 | 17.7 | 0.00 | 1.17 | 0.41 | 73 | 1004.4 |
| 20260507170125 | 13 | 225 | 12.9 | 24.1 | 0.00 | 1.17 | 0.41 | 71 | 1004.5 |
| 20260507165521 | 14 | 225 | 12.9 | 24.1 | 0.00 | 1.17 | 0.41 | 73 | 1004.5 |
| 20260507165018 | 15 | 225 | 12.9 | 29.0 | 0.00 | 1.17 | 0.41 | 71 | 1004.3 |
| 20260507164519 | 15 | 225 | 12.9 | 29.0 | 0.00 | 1.17 | 0.41 | 70 | 1004.2 |
| 20260507164017 | 16 | 225 | 8.0 | 17.7 | 0.00 | 1.17 | 0.41 | 66 | 1004.3 |
| 20260507163524 | 16 | 225 | 8.0 | 17.7 | 0.00 | 1.17 | 0.41 | 66 | 1004.4 |
| 20260507163018 | 16 | 225 | 11.3 | 24.1 | 0.00 | 1.17 | 0.41 | 66 | 1004.3 |
| 20260507162518 | 16 | 225 | 6.4 | 14.5 | 0.00 | 1.17 | 0.41 | 67 | 1004.4 |
| 20260507162018 | 16 | 225 | 6.4 | 12.9 | 0.00 | 1.17 | 0.41 | 65 | 1004.4 |
| 20260507161526 | 16 | 225 | 6.4 | 12.9 | 0.00 | 1.17 | 0.41 | 65 | 1004.6 |
| 20260507161016 | 16 | 225 | 9.7 | 22.5 | 0.00 | 1.17 | 0.41 | 66 | 1004.6 |
| 20260507160538 | 16 | 225 | 9.7 | 20.9 | 0.00 | 1.17 | 0.41 | 61 | 1004.8 |
| 20260507160016 | 15 | 225 | 12.9 | 22.5 | 0.00 | 1.17 | 0.41 | 61 | 1004.8 |
| 20260507155518 | 15 | 225 | 11.3 | 19.3 | 0.00 | 1.17 | 0.41 | 63 | 1004.8 |
| 20260507155043 | 15 | 225 | 12.9 | 20.9 | 0.00 | 1.17 | 0.41 | 62 | 1004.9 |
| 20260507154516 | 15 | 248 | 12.9 | 19.3 | 0.00 | 1.17 | 0.41 | 66 | 1004.9 |
| 20260507154036 | 15 | 225 | 9.7 | 19.3 | 0.00 | 1.17 | 0.41 | 62 | 1005.0 |
| 20260507153537 | 15 | 225 | 9.7 | 19.3 | 0.00 | 1.17 | 0.41 | 67 | 1005.2 |
| 20260507153016 | 15 | 203 | 8.0 | 12.9 | 0.00 | 1.17 | 0.41 | 65 | 1004.9 |
| 20260507152538 | 15 | 203 | 6.4 | 12.9 | 0.00 | 1.17 | 0.41 | 65 | 1005.1 |
| 20260507152016 | 15 | 203 | 8.0 | 11.3 | 0.00 | 1.17 | 0.41 | 63 | 1005.2 |
| 20260507151527 | 15 | 248 | 11.3 | 24.1 | 0.00 | 1.17 | 0.41 | 63 | 1005.1 |
| 20260507151017 | 16 | 68 | 1.6 | 4.8 | 0.00 | 1.17 | 0.41 | 63 | 1005.1 |
| 20260507150520 | 16 | 45 | 3.2 | 6.4 | 0.00 | 1.17 | 0.41 | 65 | 1005.2 |
| 20260507150017 | 15 | 315 | 6.4 | 14.5 | 0.00 | 1.17 | 0.41 | 61 | 1005.3 |
| 20260507145516 | 15 | 225 | 6.4 | 12.9 | 0.00 | 1.17 | 0.41 | 66 | 1005.4 |
| 20260507145037 | 15 | 270 | 8.0 | 19.3 | 0.00 | 1.17 | 0.41 | 66 | 1005.5 |
| 20260507144538 | 15 | 315 | 3.2 | 8.0 | 0.00 | 1.17 | 0.41 | 64 | 1005.3 |
| 20260507144022 | 15 | 270 | 8.0 | 16.1 | 0.00 | 1.17 | 0.41 | 66 | 1005.5 |
| 20260507143516 | 14 | 225 | 4.8 | 9.7 | 0.00 | 1.17 | 0.41 | 66 | 1005.5 |
| 20260507143017 | 14 | 270 | 6.4 | 17.7 | 0.00 | 1.17 | 0.41 | 68 | 1005.6 |
| 20260507142519 | 14 | 225 | 8.0 | 19.3 | 0.00 | 1.17 | 0.41 | 72 | 1005.7 |
| 20260507142019 | 14 | 270 | 6.4 | 14.5 | 0.00 | 1.17 | 0.41 | 69 | 1005.8 |
| 20260507141517 | 13 | 270 | 6.4 | 17.7 | 0.00 | 1.17 | 0.41 | 72 | 1005.8 |
| 20260507141016 | 13 | 293 | 6.4 | 14.5 | 0.00 | 1.17 | 0.41 | 70 | 1005.8 |
| 20260507140517 | 13 | 270 | 8.0 | 17.7 | 0.00 | 1.17 | 0.41 | 68 | 1005.8 |
| 20260507140017 | 13 | 270 | 8.0 | 16.1 | 0.00 | 1.17 | 0.41 | 72 | 1005.9 |
| 20260507135517 | 13 | 270 | 6.4 | 14.5 | 0.00 | 1.17 | 0.41 | 74 | 1005.8 |
| 20260507135016 | 13 | 270 | 9.7 | 17.7 | 0.00 | 1.17 | 0.41 | 73 | 1006.0 |
| 20260507134518 | 13 | 270 | 6.4 | 17.7 | 0.00 | 1.17 | 0.41 | 72 | 1006.0 |
| 20260507134018 | 13 | 315 | 4.8 | 14.5 | 0.00 | 1.17 | 0.41 | 73 | 1006.0 |
| 20260507133520 | 12 | 315 | 6.4 | 12.9 | 0.00 | 1.17 | 0.41 | 75 | 1005.9 |
| 20260507133018 | 12 | 270 | 3.2 | 11.3 | 0.00 | 1.17 | 0.41 | 71 | 1006.2 |
| 20260507132519 | 12 | 23 | 4.8 | 11.3 | 0.00 | 1.17 | 0.41 | 75 | 1006.1 |
| 20260507132021 | 12 | 315 | 8.0 | 14.5 | 0.00 | 1.17 | 0.41 | 73 | 1006.2 |
| 20260507131518 | 12 | 270 | 6.4 | 14.5 | 0.00 | 1.17 | 0.41 | 76 | 1006.0 |
| 20260507131018 | 12 | 270 | 3.2 | 11.3 | 0.00 | 1.17 | 0.41 | 77 | 1006.1 |
| 20260507130538 | 12 | 338 | 4.8 | 9.7 | 0.00 | 1.17 | 0.41 | 77 | 1006.1 |
| 20260507130018 | 12 | 315 | 6.4 | 14.5 | 0.00 | 1.17 | 0.41 | 78 | 1006.3 |
| 20260507125518 | 11 | 270 | 6.4 | 14.5 | 0.00 | 1.17 | 0.41 | 78 | 1006.3 |
| 20260507125018 | 11 | 270 | 4.8 | 9.7 | 0.00 | 1.17 | 0.41 | 79 | 1006.3 |
| 20260507124518 | 11 | 270 | 9.7 | 17.7 | 0.00 | 1.17 | 0.41 | 78 | 1006.5 |
| 20260507124023 | 11 | 293 | 6.4 | 14.5 | 0.00 | 1.17 | 0.41 | 81 | 1006.4 |
| 20260507123538 | 11 | 270 | 9.7 | 19.3 | 0.00 | 1.17 | 0.41 | 81 | 1006.4 |
| 20260507123018 | 11 | 270 | 8.0 | 16.1 | 0.00 | 1.17 | 0.41 | 81 | 1006.4 |
| 20260507122518 | 10 | 270 | 8.0 | 16.1 | 0.00 | 1.17 | 0.41 | 82 | 1006.4 |
| 20260507122018 | 10 | 315 | 8.0 | 17.7 | 0.00 | 1.17 | 0.41 | 81 | 1006.1 |
| 20260507121518 | 10 | 315 | 8.0 | 20.9 | 0.00 | 1.17 | 0.41 | 84 | 1006.2 |
| 20260507121019 | 10 | 315 | 6.4 | 14.5 | 0.00 | 1.17 | 0.41 | 84 | 1006.1 |
| 20260507120518 | 10 | 270 | 4.8 | 11.3 | 0.00 | 1.17 | 0.41 | 87 | 1006.3 |
| 20260507120018 | 9 | 293 | 6.4 | 14.5 | 0.00 | 1.17 | 0.41 | 87 | 1006.1 |
| 20260507115518 | 9 | 270 | 4.8 | 9.7 | 0.00 | 1.17 | 0.41 | 89 | 1006.3 |
| 20260507115018 | 8 | 270 | 1.6 | 4.8 | 0.00 | 1.17 | 0.41 | 91 | 1006.1 |
| 20260507114525 | 8 | 293 | 1.6 | 8.0 | 0.00 | 1.17 | 0.41 | 90 | 1006.2 |
| 20260507114019 | 8 | 293 | 3.2 | 8.0 | 0.00 | 1.17 | 0.41 | 91 | 1006.1 |
| 20260507113518 | 8 | 315 | 3.2 | 8.0 | 0.00 | 1.17 | 0.41 | 92 | 1006.1 |
| 20260507113018 | 8 | 270 | 3.2 | 11.3 | 0.00 | 1.17 | 0.41 | 93 | 1006.4 |
| 20260507112518 | 8 | 270 | 1.6 | 8.0 | 0.00 | 1.17 | 0.41 | 93 | 1006.4 |
| 20260507112019 | 8 | 0.0 | 0.0 | 0.00 | 1.17 | 0.41 | 93 | 1006.3 | |
| 20260507111517 | 8 | 0.0 | 0.0 | 0.00 | 1.17 | 0.41 | 93 | 1006.5 | |
| 20260507111019 | 8 | 0.0 | 0.0 | 0.00 | 1.17 | 0.41 | 94 | 1006.6 | |
| 20260507110518 | 8 | 0.0 | 0.0 | 0.00 | 1.17 | 0.41 | 94 | 1006.5 | |
| 20260507110028 | 8 | 0.0 | 0.0 | 0.00 | 1.17 | 0.41 | 94 | 1006.1 | |
| 20260507105518 | 8 | 0.0 | 0.0 | 0.00 | 1.17 | 0.41 | 94 | 1006.3 | |
| 20260507105020 | 8 | 0.0 | 0.0 | 0.00 | 1.17 | 0.41 | 94 | 1006.7 | |
| 20260507104519 | 8 | 0.0 | 0.0 | 0.00 | 1.17 | 0.41 | 94 | 1006.9 | |
| 20260507104018 | 8 | 0.0 | 0.0 | 0.00 | 1.17 | 0.41 | 94 | 1006.4 | |
| 20260507103518 | 8 | 270 | 1.6 | 4.8 | 0.00 | 1.17 | 0.41 | 94 | 1006.4 |
| 20260507103020 | 8 | 270 | 3.2 | 6.4 | 0.00 | 1.17 | 0.41 | 93 | 1006.7 |
| 20260507102518 | 8 | 293 | 1.6 | 4.8 | 0.00 | 1.17 | 0.41 | 93 | 1006.3 |
| 20260507102021 | 8 | 293 | 1.6 | 6.4 | 0.00 | 1.17 | 0.41 | 93 | 1006.2 |
| 20260507101517 | 8 | 270 | 3.2 | 4.8 | 0.00 | 1.17 | 0.41 | 93 | 1006.3 |
| 20260507101043 | 8 | 270 | 3.2 | 9.7 | 0.00 | 1.17 | 0.41 | 93 | 1006.5 |
| 20260507100519 | 8 | 270 | 4.8 | 9.7 | 0.00 | 1.17 | 0.41 | 93 | 1006.2 |
| 20260507100027 | 8 | 293 | 1.6 | 4.8 | 0.00 | 1.17 | 0.41 | 93 | 1006.4 |
| 20260507095523 | 8 | 315 | 1.6 | 4.8 | 0.00 | 1.17 | 0.41 | 93 | 1005.9 |
| 20260507095017 | 8 | 0.0 | 4.8 | 0.00 | 1.17 | 0.41 | 93 | 1005.9 | |
| 20260507094539 | 8 | 0.0 | 4.8 | 0.00 | 1.17 | 0.41 | 93 | 1005.8 | |
| 20260507094019 | 8 | 270 | 3.2 | 9.7 | 0.00 | 1.17 | 0.41 | 93 | 1006.3 |
| 20260507093519 | 8 | 315 | 3.2 | 8.0 | 0.00 | 1.17 | 0.41 | 92 | 1006.0 |
| 20260507093019 | 8 | 315 | 3.2 | 8.0 | 0.00 | 1.17 | 0.41 | 92 | 1005.3 |
| 20260507092520 | 8 | 315 | 3.2 | 8.0 | 0.00 | 1.17 | 0.41 | 92 | 1005.5 |
| 20260507092018 | 8 | 338 | 1.6 | 4.8 | 0.00 | 1.17 | 0.41 | 93 | 1005.5 |
| 20260507091538 | 8 | 338 | 3.2 | 8.0 | 0.00 | 1.17 | 0.41 | 92 | 1005.7 |
| 20260507091018 | 8 | 315 | 4.8 | 12.9 | 0.00 | 1.17 | 0.41 | 92 | 1006.0 |
| 20260507090538 | 8 | 315 | 4.8 | 16.1 | 0.00 | 1.17 | 0.41 | 93 | 1005.8 |
| 20260507090019 | 8 | 315 | 3.2 | 9.7 | 0.00 | 1.17 | 0.41 | 93 | 1005.8 |
| 20260507085519 | 8 | 315 | 4.8 | 12.9 | 0.00 | 1.17 | 0.41 | 93 | 1005.7 |
| 20260507085020 | 8 | 315 | 4.8 | 9.7 | 0.00 | 1.17 | 0.41 | 93 | 1006.2 |
| 20260507084518 | 8 | 315 | 6.4 | 12.9 | 0.00 | 1.17 | 0.41 | 93 | 1006.1 |
| 20260507084022 | 8 | 315 | 8.0 | 19.3 | 0.00 | 1.17 | 0.41 | 93 | 1005.9 |
| 20260507083518 | 8 | 315 | 8.0 | 17.7 | 0.00 | 1.17 | 0.41 | 94 | 1005.7 |
| 20260507083019 | 8 | 315 | 8.0 | 24.1 | 0.00 | 1.17 | 0.41 | 95 | 1005.4 |
| 20260507082518 | 8 | 315 | 9.7 | 20.9 | 0.00 | 1.17 | 0.41 | 95 | 1005.4 |
| 20260507082020 | 9 | 315 | 4.8 | 17.7 | 0.00 | 1.17 | 0.41 | 96 | 1005.8 |
| 20260507081517 | 9 | 338 | 4.8 | 16.1 | 0.00 | 1.17 | 0.41 | 97 | 1006.0 |
| 20260507081018 | 9 | 293 | 3.2 | 12.9 | 0.00 | 1.17 | 0.41 | 97 | 1005.9 |
| 20260507080519 | 9 | 293 | 3.2 | 9.7 | 0.00 | 1.17 | 0.41 | 97 | 1005.5 |
| 20260507080030 | 9 | 315 | 3.2 | 8.0 | 0.00 | 1.17 | 0.41 | 97 | 1005.3 |
| 20260507075520 | 9 | 315 | 4.8 | 11.3 | 0.00 | 1.17 | 0.41 | 97 | 1005.5 |
| 20260507075037 | 9 | 315 | 3.2 | 8.0 | 0.00 | 1.17 | 0.41 | 97 | 1005.1 |
| 20260507074517 | 9 | 293 | 3.2 | 6.4 | 0.00 | 1.17 | 0.41 | 97 | 1005.6 |
| 20260507074018 | 10 | 315 | 1.6 | 6.4 | 0.00 | 1.17 | 0.41 | 97 | 1005.4 |
| 20260507073517 | 10 | 315 | 1.6 | 6.4 | 0.00 | 1.17 | 0.41 | 97 | 1005.5 |
| 20260507073018 | 10 | 315 | 3.2 | 6.4 | 0.00 | 1.17 | 0.41 | 97 | 1005.3 |
| 20260507072539 | 10 | 293 | 1.6 | 4.8 | 0.00 | 1.17 | 0.41 | 97 | 1005.2 |
| 20260507072017 | 10 | 293 | 1.6 | 8.0 | 0.00 | 1.17 | 0.41 | 98 | 1005.4 |
| 20260507071519 | 10 | 315 | 1.6 | 3.2 | 0.00 | 1.17 | 0.41 | 98 | 1005.2 |
| 20260507071019 | 10 | 293 | 1.6 | 4.8 | 0.00 | 1.17 | 0.41 | 98 | 1005.1 |
| 20260507070517 | 10 | 293 | 1.6 | 3.2 | 0.00 | 1.17 | 0.41 | 98 | 1005.2 |
| 20260507070018 | 10 | 293 | 3.2 | 11.3 | 0.00 | 1.17 | 0.41 | 97 | 1005.2 |
| 20260507065518 | 10 | 293 | 3.2 | 8.0 | 0.00 | 1.17 | 0.41 | 98 | 1005.1 |
| 20260507065019 | 10 | 293 | 1.6 | 8.0 | 0.00 | 1.17 | 0.41 | 98 | 1004.7 |
| 20260507064519 | 10 | 0.0 | 3.2 | 0.03 | 1.17 | 0.41 | 98 | 1004.6 | |
| 20260507064058 | 10 | 0.0 | 3.2 | 0.03 | 1.17 | 0.41 | 98 | 1004.8 | |
| 20260507063518 | 10 | 315 | 1.6 | 6.4 | 0.03 | 1.17 | 0.41 | 98 | 1004.9 |
| 20260507063019 | 10 | 0.0 | 3.2 | 0.03 | 1.17 | 0.41 | 98 | 1004.6 | |
| 20260507062518 | 10 | 0.0 | 0.0 | 0.03 | 1.17 | 0.41 | 98 | 1004.5 | |
| 20260507062018 | 10 | 0.0 | 1.6 | 0.03 | 1.17 | 0.41 | 98 | 1004.4 | |
| 20260507061537 | 10 | 293 | 1.6 | 8.0 | 0.03 | 1.17 | 0.41 | 98 | 1004.5 |
| 20260507061017 | 10 | 0.0 | 4.8 | 0.03 | 1.17 | 0.41 | 98 | 1004.6 |